sat.trackr.live / text

‹ back to catalog

STARLINK-30078

NORAD 56841 · 2023-079U

PAYLOAD ACTIVE UNKNOWN

§ Identity

Operator
Country
US
Launch date
2023-06-04
Launch site
AFETR
Launch vehicle
Mass (kg)
RCS (m²)

Purposes: comms

External: N2YO · Heavens-Above · Gunter

§ Orbital elements

Epoch: 2026-05-24T23:08:48.982848Z

Period
94.27 min
Inclination
43.0030°
Eccentricity
0.0001464
Mean motion
15.27547166 rev/d
Perigee alt
482.1 km
Apogee alt
484.2 km
Semi-major
6,861.3 km
B*
1.8268e-4
RAAN
348.6042°
Arg perigee
262.9561°
Mean anomaly
97.1124°
Rev number
16,511

§ Raw data

STARLINK-300781 56841U 23079U   26144.96445582  .00004763  00000+0  18268-3 0  99922 56841  43.0030 348.6042 0001464 262.9561  97.1124 15.27547166165111

JSON: /api/v1/satellites/56841 · /tle

For live sub-satellite position, see the globe view (requires WebGL).

§ Visibility from observer

Set your observer location to see the next 7 days of passes ≥ 10°. The values pass through the URL so the page stays shareable.

No JS? Fill the form by hand. The geolocation button needs JavaScript.